Погода в Ямайке

США     40°42′14″N   73°48′51″W
темп.,
°C
ветер,
м/с
пор.,
м/с
влажн.,
%
обл.,
%
осадки,
мм/ч
давл.,
гПа
погр.,
м
3 августа, вт
вт323:00+24с46440 0.0 1018618
02:00+22с2545100 0.0 1019283
05:00+21с2248100 0.0 1019109
08:00+21с2245100 0.0 1020310
11:00+24зсз1137100 0.0 1020657
14:00+26зюз2333100 0.0 10191416
17:00+26вюв1232100 0.0 10181701
20:00+24ююв3442100 0.0 1018491
4 августа, ср
ср423:00+23ю3364100 0.0 1019528
02:00+22юз2371100 0.1 1019351
05:00+22з1265100 0.1 1018121
08:00+22всв1259100 0.1 1020308
11:00+24в2354100 0.0 10201051
14:00+25всв2347100 0.0 10201344
17:00+24в4558100 0.1 1019922
20:00+23всв5760100 0.1 1019851
5 августа, чт
чт523:00+20св61084100 1.3 1018676
02:00+19с6108274 1.4 1017490
05:00+19с487846 0.0 1018444
08:00+20с476971 0.0 1019493
11:00+23с3460100 0.0 1020822
14:00+28ссв0245100 0.0 10191294
17:00+27юв5451100 0.0 1019816
20:00+23ююв45692 0.0 1019430
6 августа, пт
пт623:00+22ююв23740 0.0 1020257
02:00+22ю11790 0.0 1020135
05:00+21зюз11810 0.0 102039
08:00+23з126925 0.0 1021307
11:00+28юз12430 0.0 1021750
14:00+31ююз343590 0.0 10191658
17:00+29ю664417 0.0 1018564
20:00+26ю586025 0.0 1018339
7 августа, сб
сб723:00+25ю4866100 0.0 1019285
02:00+24юз4105828 0.0 1019423
05:00+24юз386196 0.0 1018315
08:00+24юз3657100 0.0 1018286
11:00+28юз5841100 0.0 1018629
14:00+30ююз5839100 0.0 1017827
17:00+28ююз5846100 0.0 1016628
20:00+28юз4848100 0.0 1015527